Regional Weather Roundup
Issued by NWS

Home | Current Version | Previous Version | Text Only | Print | Product List | Glossary Off
Versions: 1 2 3 4 5 6 7 8 9 10 11 12 13 14 15 16 17 18 19 20 21 22 23 24 25 26 27 28 29 30 31 32 33 34 35 36 37 38 39 40 41 42 43 44 45 46 47 48 49 50

000
ASUS43 KBIS 251302
RWRND

NORTH DAKOTA REGIONAL WEATHER ROUNDUP
NATIONAL WEATHER SERVICE BISMARCK ND
700 AM CST SUN FEB 25 2018

NOTE: "FAIR" INDICATES FEW OR NO CLOUDS BELOW 12,000 FEET WITH NO
SIGNIFICANT WEATHER AND/OR OBSTRUCTIONS TO VISIBILITY.


NDZ001>003-009>011-017-251400-
NORTHWEST NORTH DAKOTA

CITY           SKY/WX    TMP DP  RH WIND       PRES   REMARKS
WILLISTON      CLOUDY    15   9  76 W13       29.64S WCI   1
MINOT          CLOUDY    18  11  74 W16       29.55R WCI   3
MINOT AFB      MOCLDY    16  11  80 W16         N/A  WCI   1
$$

NDZ018>021-031>035-040>046-251400-
SOUTHWEST NORTH DAKOTA

CITY           SKY/WX    TMP DP  RH WIND       PRES   REMARKS
BISMARCK       CLOUDY    23  17  78 W20       29.64R WCI   8
DICKINSON      CLEAR     15  10  80 W20       29.61R WCI  -2
GARRISON         N/A     17  13  84 W17       29.59R WCI   1
HETTINGER ARPT CLEAR     12   6  77 W14       29.67S WCI  -3
$$

NDZ004>008-012>016-024-026-027-054-251400-
NORTHEAST NORTH DAKOTA

CITY           SKY/WX    TMP DP  RH WIND       PRES   REMARKS
GRAND FORKS    MOCLDY    10   6  84 W10       29.51R WCI  -4
GRND FRKS AFB  FAIR      11   6  79 W12       29.51R WCI  -3
DEVILS LAKE    CLOUDY    19  17  92 W20       29.51R WCI   3
$$

NDZ022-023-025-028>030-036>039-047>053-251400-
SOUTHEAST NORTH DAKOTA

CITY           SKY/WX    TMP DP  RH WIND       PRES   REMARKS
FARGO          CLOUDY    15  10  80 SW10      29.56R WCI   2
JAMESTOWN      CLOUDY    22  19  89 W22       29.54R WCI   6
$$





USA.gov is the U.S. government's official web portal to all federal, state and local government web resources and services.